Orbital Elements at Epoch 2459200.5 (2020-Dec-17.0) TDB
Reference: JPL 19 (heliocentric ecliptic J2000)
Element | Value | Uncertainty (1-sigma) | Units |
e | .2069878101174772 | 5.6144e-08 | |
a | 2.594607500205349 | 2.4456e-08 | au |
q | 2.057555375623461 | 1.4667e-07 | au |
i | 18.92994749435733 | 7.0373e-06 | deg |
node | 77.19213131064279 | 1.5153e-05 | deg |
peri | 221.7857420819593 | 2.1932e-05 | deg |
M | 271.9868144940771 | 1.9641e-05 | deg |
tp | 2459573.708193486561 (2021-Dec-25.20819349) | 8.5512e-05 | TDB |
period | 1526.532063154566 4.18 | 2.1583e-05 5.909e-08 | d yr |
n | .2358286528591237 | 3.3343e-09 | deg/d |
Q | 3.131659624787236 | 2.9519e-08 | au |
|
| | Orbit Determination Parameters
Additional Information
|